Location: Unnamed
(48.2382°N, 16.3826°E)
Time: 11:33:00
(UTC+02:00)

Falcon 9 debris - Pass Details

Date: 15 August 2020
Orbit: 426 x 434 km, 53.0° (Epoch: 23 September)

Event Time Altitude Azimuth Distance (km) Brightness Sun altitude
Rises 21:42:18 0° 277° (W) 2,408 ? -14.3°
Reaches altitude 10° 21:44:31 10° 286° (WNW) 1,542 ? -14.6°
Maximum altitude 21:47:45 36° 355° (N) 705 ? -15.0°
Drops below altitude 10° 21:51:00 10° 65° (ENE) 1,545 ? -15.4°
Enters shadow 21:51:11 - 66° (ENE) 1,612 ? -15.4°
